Home > Weather > Alexandroupoli > Past weeks

Flag for Greece Past Weather in Alexandroupoli, Greece — Yesterday and Last 2 Weeks

Now
73 °F

Passing clouds.


Feels Like: 72 °F
Forecast: 69 / 85 °F
Wind: No wind

Location: Alexandroupoli Airport

Current Time: Jun 27, 2016 at 7:15:47 AM

Latest Report: Jun 27, 2016 at 6:50 AM


Visibility: N/A

Pressure: 29.83 "Hg

Humidity: 89%

Dew Point: 70 °F

Location of AlexandroupoliLocation

Past Weather in Alexandroupoli — Graph

°F

Alexandroupoli Temperature Yesterday

Maximum temperature yesterday: 90 °F (at 4:20 PM)
Minimum temperature yesterday: 73 °F (at 11:50 AM)
Average temperature yesterday: 80 °F

High & Low Weather Summary for the Past Weeks

 TemperatureHumidityPressure
High100 °F (Jun 19, 3:50 PM)94% (Jun 15, 4:50 AM)30.04 "Hg (Jun 15, 4:50 AM)
Low57 °F (Jun 12, 5:50 AM)21% (Jun 19, 3:50 PM)29.53 "Hg (Jun 14, 4:20 AM)
Average82 °F54%29.86 "Hg
* Reported Jun 12 5:20 AM — Jun 27 5:50 AM, Alexandroupoli, Weather by CustomWeather, © 2016

Note: Actual official high and low records may vary slightly from our data, if they occured in-between our weather recording intervals... More about our weather records

Advertising

Alexandroupoli Weather History for the Previous 24 Hours

Scroll right to see more
 ConditionsComfort  
Time TempWeatherWind HumidityBarometerVisibility
5:50 AM
Mon, Jun 27
72 °FPassing clouds.No wind94%29.83 "HgN/A
5:20 AM72 °FPassing clouds.No wind94%29.83 "HgN/A
4:50 AM73 °FPassing clouds.5 mph89%29.83 "HgN/A
4:20 AM73 °FPassing clouds.3 mph89%29.83 "HgN/A
11:50 PM
Sun, Jun 26
75 °FPassing clouds.6 mph69%29.83 "HgN/A
11:20 PM77 °FPassing clouds.5 mph69%29.86 "HgN/A
10:50 PM77 °FPassing clouds.5 mph69%29.86 "HgN/A
10:20 PM79 °FPassing clouds.5 mph65%29.86 "HgN/A
9:50 PM81 °FScattered clouds.5 mph62%29.86 "HgN/A
9:20 PM81 °FScattered clouds.5 mph62%29.83 "HgN/A
8:50 PM82 °FScattered clouds.6 mph58%29.83 "HgN/A
8:20 PM82 °FPassing clouds.9 mph58%29.80 "HgN/A
7:50 PM84 °FPassing clouds.8 mph48%29.80 "HgN/A
7:20 PM86 °FPassing clouds.13 mph46%29.80 "HgN/A
6:50 PM86 °FPassing clouds.15 mph46%29.80 "HgN/A
6:20 PM86 °FPassing clouds.9 mph46%29.77 "HgN/A
5:50 PM86 °FPassing clouds.10 mph46%29.77 "HgN/A
5:20 PM88 °FScattered clouds.9 mph43%29.80 "HgN/A
4:50 PM90 °FScattered clouds.15 mph43%29.80 "HgN/A
4:20 PM90 °FScattered clouds.16 mph43%29.80 "HgN/A
3:50 PM88 °FScattered clouds.21 mph43%29.80 "HgN/A
3:20 PM84 °FScattered clouds.18 mph58%29.77 "HgN/A
2:50 PM82 °FScattered clouds.15 mph62%29.77 "HgN/A
2:20 PM81 °FScattered clouds.18 mph70%29.77 "HgN/A
1:50 PM79 °FScattered clouds.18 mph79%29.80 "HgN/A
1:20 PM77 °FThunderstorms. Partly sunny.20 mph79%29.80 "HgN/A
12:50 PM77 °FPartly sunny.16 mph83%29.83 "HgN/A
12:20 PM75 °FBroken clouds.13 mph83%29.83 "HgN/A
11:50 AM73 °FThunderstorms. Broken clouds.14 mph83%29.83 "HgN/A
11:20 AM77 °FThunderstorms. Scattered clouds.7 mph79%29.86 "HgN/A
10:50 AM77 °FThunderstorms. Scattered clouds.No wind74%29.86 "HgN/A
10:20 AM77 °FScattered clouds.No wind74%29.86 "HgN/A
9:50 AM81 °FBroken clouds.3 mph62%29.83 "HgN/A
9:20 AM79 °FThunderstorms. Broken clouds.5 mph61%29.83 "HgN/A
8:50 AM79 °FThunderstorms. Broken clouds.9 mph58%29.83 "HgN/A
8:20 AM79 °FBroken clouds.12 mph61%29.83 "HgN/A
7:50 AM79 °FPartly sunny.7 mph61%29.80 "HgN/A
7:20 AM77 °FScattered clouds.8 mph65%29.80 "HgN/A
Weather by CustomWeather, © 2016

See weather overviewHow to use our weather pages